Location: Dodge City Community College Clyde Tombaugh Astronomy Center
(37.7756°N, 100.0412°W)
Time: 15:14:31
(UTC+00:00)

Meteor 2-21 - Pass Details

Date: 08 December 2021
Orbit: 933 x 967 km, 82.6° (Epoch: 19 January)

Event Time Altitude Azimuth Distance (km) Brightness Sun altitude
Rises 12:52:36 0° 188° (S) 3,638 7.7 -9.9°
Reaches altitude 10° 12:55:06 10° 189° (S) 2,693 7.0 -9.5°
Maximum altitude 13:01:17 83° 277° (W) 973 4.5 -8.3°
Drops below altitude 10° 13:07:28 10° 5° (N) 2,691 6.6 -7.2°
Sets 13:09:58 0° 7° (N) 3,635 7.3 -6.7°
